TAM8131 SAEZ-SBGR

Flight info

Callsign TAM8131
Flight time 2h 11m
Altitude 35000
Route DORVO1J DORVO UN857 OGRUN UZ121 BUXUK
Aircraft A320/M-SDE3FGHIRWY/LB1

Departure

Time 2026-05-04 21:45
Airport Ezeiza International Airport - Ministro Pistarini (SAEZ)

Arrival

Time 2026-05-04 23:57
Airport São Paulo/Guarulhos–Governor André Franco Montoro International Airport (SBGR)
Time Latitude Longitude Altitude Speed Heading
2026-05-04 21:16 -34.81348 -58.53718 72 ft 0 kts 308°
2026-05-04 21:24 -34.81357 -58.53703 64 ft 3 kts 303°
2026-05-04 21:25 -34.81367 -58.53682 62 ft 3 kts 291°
2026-05-04 21:25 -34.81372 -58.53667 67 ft 3 kts 277°
2026-05-04 21:25 -34.81372 -58.53645 62 ft 3 kts 261°
2026-05-04 21:25 -34.81367 -58.53622 67 ft 3 kts 236°
2026-05-04 21:26 -34.81354 -58.53604 67 ft 3 kts 211°
2026-05-04 21:26 -34.81336 -58.53594 63 ft 3 kts 194°
2026-05-04 21:26 -34.81318 -58.53590 65 ft 1 kts 185°
2026-05-04 21:31 -34.81322 -58.53590 64 ft 2 kts 185°
2026-05-04 21:31 -34.81347 -58.53594 63 ft 5 kts 187°
2026-05-04 21:32 -34.81384 -58.53600 67 ft 6 kts 189°
2026-05-04 21:32 -34.81433 -58.53614 62 ft 8 kts 196°
2026-05-04 21:32 -34.81483 -58.53636 72 ft 9 kts 202°
2026-05-04 21:32 -34.81536 -58.53670 72 ft 8 kts 216°
2026-05-04 21:33 -34.81579 -58.53716 63 ft 8 kts 223°
2026-05-04 21:33 -34.81616 -58.53757 65 ft 6 kts 219°
2026-05-04 21:33 -34.81654 -58.53772 72 ft 6 kts 180°
2026-05-04 21:33 -34.81693 -58.53754 69 ft 6 kts 148°
2026-05-04 21:34 -34.81737 -58.53725 65 ft 9 kts 154°
2026-05-04 21:34 -34.81804 -58.53687 70 ft 10 kts 154°
2026-05-04 21:34 -34.81838 -58.53667 70 ft 0 kts 154°
2026-05-04 21:35 -34.81842 -58.53666 70 ft 3 kts 154°
2026-05-04 21:35 -34.81882 -58.53642 69 ft 10 kts 154°
2026-05-04 21:35 -34.81942 -58.53607 69 ft 10 kts 155°
2026-05-04 21:35 -34.82010 -58.53568 68 ft 11 kts 155°
2026-05-04 21:36 -34.82058 -58.53541 73 ft 6 kts 155°
2026-05-04 21:36 -34.82115 -58.53510 70 ft 13 kts 155°
2026-05-04 21:36 -34.82209 -58.53458 69 ft 15 kts 156°
2026-05-04 21:36 -34.82294 -58.53411 70 ft 12 kts 155°
2026-05-04 21:37 -34.82368 -58.53370 69 ft 12 kts 155°
2026-05-04 21:37 -34.82445 -58.53327 71 ft 12 kts 155°
2026-05-04 21:37 -34.82524 -58.53283 68 ft 13 kts 155°
2026-05-04 21:37 -34.82608 -58.53236 74 ft 14 kts 155°
2026-05-04 21:38 -34.82696 -58.53186 74 ft 13 kts 155°
2026-05-04 21:38 -34.82770 -58.53145 72 ft 12 kts 155°
2026-05-04 21:38 -34.82847 -58.53101 71 ft 13 kts 155°
2026-05-04 21:38 -34.82921 -58.53060 70 ft 12 kts 155°
2026-05-04 21:39 -34.83009 -58.53010 70 ft 15 kts 155°
2026-05-04 21:39 -34.83094 -58.52963 72 ft 12 kts 155°
2026-05-04 21:39 -34.83180 -58.52915 69 ft 14 kts 155°
2026-05-04 21:39 -34.83252 -58.52874 71 ft 9 kts 155°
2026-05-04 21:40 -34.83318 -58.52837 71 ft 12 kts 155°
2026-05-04 21:40 -34.83388 -58.52798 76 ft 9 kts 155°
2026-05-04 21:40 -34.83449 -58.52764 76 ft 9 kts 155°
2026-05-04 21:40 -34.83495 -58.52738 73 ft 6 kts 155°
2026-05-04 21:41 -34.83532 -58.52714 71 ft 7 kts 140°
2026-05-04 21:41 -34.83542 -58.52663 76 ft 4 kts 85°
2026-05-04 21:41 -34.83537 -58.52637 77 ft 3 kts 72°
2026-05-04 21:41 -34.83529 -58.52609 70 ft 4 kts 72°
2026-05-04 21:42 -34.83528 -58.52603 72 ft 0 kts 72°
2026-05-04 21:43 -34.83525 -58.52594 72 ft 3 kts 72°
2026-05-04 21:43 -34.83515 -58.52558 73 ft 6 kts 70°
2026-05-04 21:43 -34.83483 -58.52498 83 ft 9 kts 36°
2026-05-04 21:43 -34.83432 -58.52491 84 ft 7 kts 349°
2026-05-04 21:44 -34.83417 -58.52497 82 ft 0 kts 343°
2026-05-04 21:44 -34.83376 -58.52511 75 ft 22 kts 344°
2026-05-04 21:44 -34.82976 -58.52649 74 ft 94 kts 344°
2026-05-04 21:44 -34.82158 -58.52933 71 ft 148 kts 344°
2026-05-04 21:45 -34.81072 -58.53303 418 ft 164 kts 344°
2026-05-04 21:45 -34.79974 -58.53691 1073 ft 165 kts 343°
2026-05-04 21:45 -34.78868 -58.54096 1693 ft 170 kts 342°
2026-05-04 21:45 -34.77699 -58.54515 2167 ft 180 kts 342°
2026-05-04 21:46 -34.76453 -58.54953 2602 ft 192 kts 342°
2026-05-04 21:46 -34.75069 -58.55166 3021 ft 208 kts
2026-05-04 21:46 -34.73649 -58.54558 3369 ft 235 kts 29°
2026-05-04 21:46 -34.72404 -58.53076 3764 ft 263 kts 53°
2026-05-04 21:47 -34.71672 -58.50947 4311 ft 284 kts 77°
2026-05-04 21:47 -34.71563 -58.48526 5134 ft 289 kts 88°
2026-05-04 21:47 -34.71573 -58.46064 5939 ft 294 kts 89°
2026-05-04 21:47 -34.71582 -58.43556 6723 ft 298 kts 89°
2026-05-04 21:48 -34.71590 -58.41022 7500 ft 302 kts 89°
2026-05-04 21:48 -34.71597 -58.38455 8308 ft 305 kts 89°
2026-05-04 21:48 -34.71606 -58.35862 9104 ft 309 kts 89°
2026-05-04 21:48 -34.71617 -58.33236 9886 ft 312 kts 90°
2026-05-04 21:49 -34.71628 -58.30558 10439 ft 324 kts 90°
2026-05-04 21:49 -34.71644 -58.27753 10803 ft 340 kts 91°
2026-05-04 21:49 -34.71662 -58.24814 11213 ft 355 kts 91°
2026-05-04 21:49 -34.71674 -58.21758 11651 ft 368 kts 91°
2026-05-04 21:50 -34.71680 -58.18593 12105 ft 380 kts 91°
2026-05-04 21:50 -34.71678 -58.15353 12664 ft 387 kts 91°
2026-05-04 21:50 -34.71672 -58.12054 13218 ft 394 kts 91°
2026-05-04 21:50 -34.71671 -58.08700 13806 ft 400 kts 91°
2026-05-04 21:51 -34.71674 -58.05305 14351 ft 405 kts 92°
2026-05-04 21:51 -34.71680 -58.01862 14883 ft 409 kts 92°
2026-05-04 21:51 -34.71685 -57.98384 15422 ft 414 kts 92°
2026-05-04 21:51 -34.71687 -57.94863 15958 ft 419 kts 91°
2026-05-04 21:52 -34.71686 -57.91310 16486 ft 424 kts 91°
2026-05-04 21:52 -34.71685 -57.87702 17007 ft 428 kts 92°
2026-05-04 21:52 -34.71684 -57.84067 17525 ft 433 kts 92°
2026-05-04 21:52 -34.71681 -57.80391 18029 ft 437 kts 92°
2026-05-04 21:53 -34.71675 -57.76679 18487 ft 441 kts 91°
2026-05-04 21:53 -34.71668 -57.72940 18933 ft 445 kts 91°
2026-05-04 21:53 -34.71659 -57.69168 19377 ft 448 kts 91°
2026-05-04 21:53 -34.71648 -57.65313 19835 ft 451 kts 91°
2026-05-04 21:54 -34.71638 -57.61538 20281 ft 455 kts 92°
2026-05-04 21:54 -34.71484 -57.57680 20709 ft 459 kts 84°
2026-05-04 21:54 -34.70831 -57.53814 21137 ft 464 kts 73°
2026-05-04 21:54 -34.69682 -57.50146 21555 ft 466 kts 63°
2026-05-04 21:55 -34.68064 -57.46738 21962 ft 467 kts 53°
2026-05-04 21:55 -34.66045 -57.43635 22374 ft 469 kts 47°
2026-05-04 21:55 -34.63940 -57.40595 22775 ft 472 kts 47°
2026-05-04 21:55 -34.61823 -57.37536 23180 ft 475 kts 47°
2026-05-04 21:56 -34.59694 -57.34454 23562 ft 478 kts 47°
2026-05-04 21:56 -34.57553 -57.31348 23888 ft 481 kts 47°
2026-05-04 21:56 -34.55402 -57.28228 24231 ft 483 kts 47°
2026-05-04 21:56 -34.53241 -57.25095 24563 ft 486 kts 47°
2026-05-04 21:57 -34.51066 -57.21943 24896 ft 488 kts 47°
2026-05-04 21:57 -34.48884 -57.18786 25220 ft 490 kts 47°
2026-05-04 21:57 -34.47489 -57.16772 25427 ft 491 kts 47°
2026-05-04 21:57 -34.45287 -57.13601 25751 ft 494 kts 47°
2026-05-04 21:58 -34.43064 -57.10411 26078 ft 496 kts 47°
2026-05-04 21:58 -34.40836 -57.07217 26405 ft 498 kts 47°
2026-05-04 21:58 -34.38593 -57.04002 26727 ft 500 kts 47°
2026-05-04 21:58 -34.36313 -57.00731 27042 ft 502 kts 47°
2026-05-04 21:59 -34.34087 -56.97535 27348 ft 505 kts 47°
2026-05-04 21:59 -34.31820 -56.94283 27631 ft 507 kts 47°
2026-05-04 21:59 -34.29514 -56.90977 27924 ft 509 kts 47°
2026-05-04 21:59 -34.27222 -56.87701 28209 ft 511 kts 47°
2026-05-04 22:00 -34.24923 -56.84418 28491 ft 513 kts 46°
2026-05-04 22:00 -34.22613 -56.81119 28772 ft 515 kts 46°
2026-05-04 22:00 -34.20296 -56.77816 29030 ft 516 kts 46°
2026-05-04 22:00 -34.17969 -56.74506 29291 ft 518 kts 46°
2026-05-04 22:01 -34.15627 -56.71182 29565 ft 520 kts 46°
2026-05-04 22:01 -34.13283 -56.67856 29915 ft 520 kts 46°
2026-05-04 22:01 -34.10939 -56.64526 30250 ft 519 kts 46°
2026-05-04 22:01 -34.08602 -56.61210 30555 ft 519 kts 46°
2026-05-04 22:02 -34.06259 -56.57895 30847 ft 519 kts 46°
2026-05-04 22:02 -34.03921 -56.54589 31131 ft 519 kts 46°
2026-05-04 22:02 -34.01576 -56.51274 31423 ft 519 kts 46°
2026-05-04 22:02 -33.99234 -56.47968 31699 ft 519 kts 46°
2026-05-04 22:03 -33.96884 -56.44655 31988 ft 520 kts 46°
2026-05-04 22:03 -33.94536 -56.41346 32277 ft 520 kts 46°
2026-05-04 22:03 -33.92184 -56.38036 32566 ft 520 kts 46°
2026-05-04 22:03 -33.89835 -56.34731 32859 ft 520 kts 47°
2026-05-04 22:04 -33.87487 -56.31426 33145 ft 520 kts 47°
2026-05-04 22:04 -33.85132 -56.28124 33432 ft 520 kts 46°
2026-05-04 22:04 -33.82773 -56.24832 33721 ft 520 kts 46°
2026-05-04 22:04 -33.80408 -56.21545 34006 ft 519 kts 46°
2026-05-04 22:05 -33.78049 -56.18266 34261 ft 519 kts 46°
2026-05-04 22:05 -33.75690 -56.14974 34523 ft 519 kts 47°
2026-05-04 22:05 -33.73338 -56.11679 34768 ft 519 kts 47°
2026-05-04 22:05 -33.70991 -56.08390 34934 ft 519 kts 47°
2026-05-04 22:06 -33.68635 -56.05094 34974 ft 519 kts 47°
2026-05-04 22:06 -33.63923 -55.98514 34972 ft 519 kts 47°
2026-05-04 22:07 -33.59179 -55.91908 34968 ft 519 kts 47°
2026-05-04 22:07 -33.54459 -55.85354 34972 ft 519 kts 46°
2026-05-04 22:08 -33.49731 -55.78811 34972 ft 519 kts 47°
2026-05-04 22:08 -33.45010 -55.72275 34972 ft 519 kts 47°
2026-05-04 22:09 -33.40286 -55.65737 34971 ft 519 kts 47°
2026-05-04 22:09 -33.35563 -55.59218 34974 ft 519 kts 47°
2026-05-04 22:10 -33.30832 -55.52696 34982 ft 519 kts 47°
2026-05-04 22:10 -33.26095 -55.46193 34977 ft 519 kts 46°
2026-05-04 22:11 -33.21346 -55.39690 34980 ft 519 kts 47°
2026-05-04 22:11 -33.16605 -55.33195 34985 ft 519 kts 47°
2026-05-04 22:12 -33.11853 -55.26698 34985 ft 519 kts 47°
2026-05-04 22:12 -33.07105 -55.20218 34984 ft 519 kts 47°
2026-05-04 22:13 -33.02355 -55.13746 34981 ft 519 kts 47°
2026-05-04 22:13 -32.97602 -55.07282 34978 ft 519 kts 47°
2026-05-04 22:14 -32.92847 -55.00825 34979 ft 519 kts 47°
2026-05-04 22:14 -32.88059 -54.94325 34978 ft 519 kts 47°
2026-05-04 22:15 -32.83294 -54.87878 34986 ft 519 kts 47°
2026-05-04 22:15 -32.78526 -54.81443 34986 ft 519 kts 47°
2026-05-04 22:16 -32.73755 -54.75012 34992 ft 518 kts 47°
2026-05-04 22:16 -32.68979 -54.68603 34994 ft 518 kts 47°
2026-05-04 22:17 -32.64207 -54.62201 34995 ft 518 kts 47°
2026-05-04 22:17 -32.59442 -54.55802 34987 ft 517 kts 47°
2026-05-04 22:18 -32.54668 -54.49405 34992 ft 518 kts 47°
2026-05-04 22:18 -32.49895 -54.43022 34985 ft 517 kts 47°
2026-05-04 22:19 -32.45125 -54.36653 34980 ft 517 kts 47°
2026-05-04 22:19 -32.40341 -54.30291 34976 ft 517 kts 47°
2026-05-04 22:20 -32.35561 -54.23944 34977 ft 517 kts 47°
2026-05-04 22:20 -32.30799 -54.17574 34979 ft 517 kts 47°
2026-05-04 22:21 -32.26086 -54.11158 34981 ft 517 kts 47°
2026-05-04 22:21 -32.21375 -54.04756 34988 ft 517 kts 47°
2026-05-04 22:22 -32.16647 -53.98357 34994 ft 516 kts 47°
2026-05-04 22:22 -32.11891 -53.91942 34995 ft 516 kts 47°
2026-05-04 22:23 -32.07091 -53.85651 35001 ft 515 kts 41°
2026-05-04 22:23 -32.01424 -53.80614 35000 ft 509 kts 29°
2026-05-04 22:24 -31.95486 -53.76072 35004 ft 509 kts 29°
2026-05-04 22:24 -31.89547 -53.71521 35003 ft 509 kts 29°
2026-05-04 22:25 -31.83610 -53.66974 35006 ft 509 kts 29°
2026-05-04 22:25 -31.77677 -53.62436 35009 ft 509 kts 29°
2026-05-04 22:26 -31.71736 -53.57907 35011 ft 509 kts 29°
2026-05-04 22:26 -31.65794 -53.53393 35017 ft 509 kts 29°
2026-05-04 22:27 -31.59859 -53.48884 35023 ft 508 kts 29°
2026-05-04 22:27 -31.53921 -53.44378 35026 ft 508 kts 29°
2026-05-04 22:28 -31.47987 -53.39872 35035 ft 508 kts 29°
2026-05-04 22:28 -31.42057 -53.35385 35030 ft 507 kts 28°
2026-05-04 22:29 -31.36131 -53.30913 35038 ft 507 kts 29°
2026-05-04 22:29 -31.30213 -53.26440 35039 ft 506 kts 29°
2026-05-04 22:30 -31.25259 -53.22701 35040 ft 505 kts 28°
2026-05-04 22:30 -31.19353 -53.18265 35038 ft 505 kts 28°
2026-05-04 22:31 -31.13445 -53.13842 35039 ft 504 kts 28°
2026-05-04 22:31 -31.07543 -53.09417 35030 ft 504 kts 28°
2026-05-04 22:32 -31.01655 -53.05007 35033 ft 503 kts 28°
2026-05-04 22:32 -30.95758 -53.00599 35036 ft 503 kts 28°
2026-05-04 22:33 -30.89873 -52.96198 35044 ft 502 kts 28°
2026-05-04 22:33 -30.83999 -52.91820 35036 ft 501 kts 28°
2026-05-04 22:34 -30.78120 -52.87445 35034 ft 501 kts 28°
2026-05-04 22:34 -30.72249 -52.83080 35035 ft 501 kts 28°
2026-05-04 22:35 -30.66343 -52.78689 35051 ft 501 kts 28°
2026-05-04 22:35 -30.60467 -52.74332 35046 ft 501 kts 28°
2026-05-04 22:36 -30.54591 -52.69983 35047 ft 500 kts 28°
2026-05-04 22:36 -30.48723 -52.65648 35046 ft 500 kts 28°
2026-05-04 22:37 -30.42850 -52.61311 35045 ft 500 kts 28°
2026-05-04 22:37 -30.36980 -52.56984 35046 ft 500 kts 28°
2026-05-04 22:38 -30.31118 -52.52661 35044 ft 500 kts 28°
2026-05-04 22:38 -30.25256 -52.48353 35044 ft 499 kts 28°
2026-05-04 22:39 -30.19390 -52.44057 35038 ft 499 kts 28°
2026-05-04 22:39 -30.13551 -52.39694 35025 ft 502 kts 31°
2026-05-04 22:40 -30.07694 -52.35130 35038 ft 513 kts 31°
2026-05-04 22:40 -30.01765 -52.30484 35035 ft 515 kts 31°
2026-05-04 22:41 -29.95812 -52.25881 35035 ft 515 kts 31°
2026-05-04 22:41 -29.89840 -52.21314 35035 ft 515 kts 31°
2026-05-04 22:42 -29.83827 -52.16722 35037 ft 515 kts 31°
2026-05-04 22:42 -29.77859 -52.12156 35038 ft 515 kts 31°
2026-05-04 22:43 -29.71895 -52.07587 35047 ft 515 kts 31°
2026-05-04 22:43 -29.65934 -52.03027 35051 ft 514 kts 31°
2026-05-04 22:44 -29.59974 -51.98487 35059 ft 514 kts 31°
2026-05-04 22:44 -29.54015 -51.93955 35057 ft 513 kts 31°
2026-05-04 22:45 -29.48066 -51.89425 35064 ft 513 kts 31°
2026-05-04 22:45 -29.39153 -51.82632 35073 ft 512 kts 31°
2026-05-04 22:46 -29.33209 -51.78144 35079 ft 511 kts 31°
2026-05-04 22:46 -29.27275 -51.73663 35079 ft 511 kts 31°
2026-05-04 22:47 -29.21343 -51.69177 35082 ft 511 kts 31°
2026-05-04 22:47 -29.15410 -51.64689 35085 ft 511 kts 31°
2026-05-04 22:48 -29.09486 -51.60210 35089 ft 510 kts 31°
2026-05-04 22:48 -29.03559 -51.55755 35094 ft 510 kts 31°
2026-05-04 22:49 -28.97636 -51.51310 35098 ft 509 kts 31°
2026-05-04 22:49 -28.91715 -51.46867 35101 ft 509 kts 31°
2026-05-04 22:50 -28.85756 -51.42399 35106 ft 509 kts 31°
2026-05-04 22:50 -28.79834 -51.37972 35115 ft 508 kts 31°
2026-05-04 22:51 -28.73924 -51.33552 35115 ft 508 kts 31°
2026-05-04 22:51 -28.68016 -51.29142 35124 ft 508 kts 31°
2026-05-04 22:52 -28.62101 -51.24736 35139 ft 508 kts 31°
2026-05-04 22:52 -28.56193 -51.20331 35140 ft 507 kts 31°
2026-05-04 22:53 -28.50287 -51.15948 35139 ft 507 kts 31°
2026-05-04 22:53 -28.44384 -51.11565 35147 ft 507 kts 31°
2026-05-04 22:54 -28.38483 -51.07181 35152 ft 507 kts 31°
2026-05-04 22:54 -28.32581 -51.02802 35157 ft 506 kts 31°
2026-05-04 22:55 -28.26676 -50.98448 35157 ft 506 kts 31°
2026-05-04 22:55 -28.20770 -50.94108 35161 ft 506 kts 31°
2026-05-04 22:56 -28.14870 -50.89758 35162 ft 506 kts 31°
2026-05-04 22:56 -28.08980 -50.85399 35165 ft 506 kts 31°
2026-05-04 22:57 -28.03095 -50.81038 35171 ft 506 kts 32°
2026-05-04 22:57 -27.97367 -50.76412 35171 ft 506 kts 35°
2026-05-04 22:58 -27.91701 -50.71604 35178 ft 506 kts 35°
2026-05-04 22:58 -27.86046 -50.66889 35182 ft 505 kts 34°
2026-05-04 22:59 -27.80357 -50.62227 35182 ft 505 kts 34°
2026-05-04 22:59 -27.74658 -50.57580 35185 ft 505 kts 34°
2026-05-04 23:00 -27.68975 -50.52924 35185 ft 505 kts 34°
2026-05-04 23:00 -27.63292 -50.48266 35187 ft 505 kts 34°
2026-05-04 23:01 -27.57603 -50.43630 35188 ft 505 kts 34°
2026-05-04 23:01 -27.51900 -50.39009 35189 ft 505 kts 34°
2026-05-04 23:02 -27.46210 -50.34374 35187 ft 505 kts 34°
2026-05-04 23:02 -27.40516 -50.29731 35187 ft 505 kts 34°
2026-05-04 23:03 -27.34812 -50.25106 35194 ft 506 kts 34°
2026-05-04 23:03 -27.29118 -50.20488 35202 ft 506 kts 34°
2026-05-04 23:04 -27.24329 -50.16613 35201 ft 506 kts 35°
2026-05-04 23:04 -27.18628 -50.11988 35199 ft 505 kts 34°
2026-05-04 23:05 -27.12916 -50.07379 35191 ft 505 kts 34°
2026-05-04 23:05 -27.07203 -50.02783 35193 ft 505 kts 34°
2026-05-04 23:06 -27.01483 -49.98186 35190 ft 505 kts 34°
2026-05-04 23:06 -26.95767 -49.93593 35193 ft 505 kts 34°
2026-05-04 23:07 -26.90055 -49.89001 35183 ft 505 kts 34°
2026-05-04 23:07 -26.84339 -49.84419 35187 ft 505 kts 34°
2026-05-04 23:08 -26.78620 -49.79840 35182 ft 505 kts 34°
2026-05-04 23:08 -26.72909 -49.75260 35182 ft 505 kts 34°
2026-05-04 23:09 -26.67201 -49.70687 35185 ft 504 kts 34°
2026-05-04 23:09 -26.61455 -49.66107 35204 ft 504 kts 34°
2026-05-04 23:10 -26.55752 -49.61567 35200 ft 503 kts 34°
2026-05-04 23:10 -26.50055 -49.57030 35195 ft 503 kts 34°
2026-05-04 23:11 -26.44359 -49.52495 35195 ft 503 kts 34°
2026-05-04 23:11 -26.38670 -49.47969 35199 ft 502 kts 33°
2026-05-04 23:12 -26.32977 -49.43452 35195 ft 502 kts 33°
2026-05-04 23:12 -26.27285 -49.38954 35198 ft 502 kts 33°
2026-05-04 23:13 -26.21600 -49.34458 35213 ft 501 kts 33°
2026-05-04 23:13 -26.15919 -49.29961 35212 ft 500 kts 33°
2026-05-04 23:14 -26.10232 -49.25503 35211 ft 499 kts 31°
2026-05-04 23:14 -26.04352 -49.21422 35208 ft 497 kts 27°
2026-05-04 23:15 -25.98356 -49.17592 35205 ft 496 kts 27°
2026-05-04 23:15 -25.92391 -49.13732 35208 ft 496 kts 28°
2026-05-04 23:16 -25.86476 -49.09789 35205 ft 496 kts 28°
2026-05-04 23:16 -25.80572 -49.05817 35191 ft 497 kts 24°
2026-05-04 23:17 -25.74604 -49.01822 35182 ft 498 kts 24°
2026-05-04 23:17 -25.68645 -48.97869 35181 ft 499 kts 24°
2026-05-04 23:18 -25.62679 -48.93927 35180 ft 500 kts 24°
2026-05-04 23:18 -25.56705 -48.89973 35173 ft 500 kts 24°
2026-05-04 23:19 -25.50741 -48.86020 35172 ft 500 kts 24°
2026-05-04 23:19 -25.44759 -48.82103 35158 ft 499 kts 22°
2026-05-04 23:20 -25.38695 -48.78398 35159 ft 497 kts 21°
2026-05-04 23:20 -25.32598 -48.74784 35166 ft 497 kts 21°
2026-05-04 23:21 -25.26522 -48.71130 35167 ft 498 kts 21°
2026-05-04 23:21 -25.20457 -48.67445 35169 ft 498 kts 21°
2026-05-04 23:22 -25.14381 -48.63777 35176 ft 497 kts 21°
2026-05-04 23:22 -25.08317 -48.60133 35180 ft 496 kts 21°
2026-05-04 23:23 -25.02248 -48.56490 35174 ft 497 kts 21°
2026-05-04 23:23 -24.96184 -48.52843 35173 ft 497 kts 21°
2026-05-04 23:24 -24.90124 -48.49173 35172 ft 497 kts 21°
2026-05-04 23:24 -24.84027 -48.45486 35179 ft 497 kts 22°
2026-05-04 23:25 -24.77960 -48.41830 35179 ft 497 kts 22°
2026-05-04 23:25 -24.71896 -48.38182 35178 ft 497 kts 22°
2026-05-04 23:26 -24.65836 -48.34534 35176 ft 497 kts 22°
2026-05-04 23:26 -24.59771 -48.30880 35173 ft 497 kts 22°
2026-05-04 23:27 -24.53715 -48.27233 35176 ft 497 kts 22°
2026-05-04 23:27 -24.47643 -48.23595 35176 ft 496 kts 22°
2026-05-04 23:28 -24.41580 -48.19968 35179 ft 496 kts 22°
2026-05-04 23:28 -24.35516 -48.16342 35170 ft 497 kts 22°
2026-05-04 23:29 -24.29464 -48.12738 35178 ft 497 kts 22°
2026-05-04 23:29 -24.23375 -48.09159 35169 ft 496 kts 21°
2026-05-04 23:30 -24.17289 -48.05584 35172 ft 497 kts 22°
2026-05-04 23:30 -24.11198 -48.02000 35056 ft 497 kts 22°
2026-05-04 23:31 -24.08160 -48.00209 34678 ft 497 kts 22°
2026-05-04 23:31 -24.05116 -47.98419 34284 ft 496 kts 22°
2026-05-04 23:31 -24.02078 -47.96637 33845 ft 496 kts 22°
2026-05-04 23:31 -23.99033 -47.94850 33447 ft 498 kts 25°
2026-05-04 23:32 -23.95974 -47.93056 33009 ft 499 kts 24°
2026-05-04 23:32 -23.92908 -47.91264 32573 ft 500 kts 24°
2026-05-04 23:32 -23.89845 -47.89471 32142 ft 498 kts 25°
2026-05-04 23:32 -23.86810 -47.87691 31720 ft 495 kts 25°
2026-05-04 23:33 -23.83783 -47.85913 31301 ft 491 kts 25°
2026-05-04 23:33 -23.80780 -47.84152 30891 ft 488 kts 25°
2026-05-04 23:33 -23.77816 -47.82360 30492 ft 487 kts 29°
2026-05-04 23:33 -23.75086 -47.80177 30068 ft 487 kts 39°
2026-05-04 23:34 -23.72627 -47.77639 29603 ft 485 kts 42°
2026-05-04 23:34 -23.70180 -47.75057 29137 ft 481 kts 42°
2026-05-04 23:34 -23.67788 -47.72532 28689 ft 477 kts 42°
2026-05-04 23:34 -23.65407 -47.70023 28244 ft 473 kts 42°
2026-05-04 23:35 -23.63050 -47.67542 27814 ft 469 kts 42°
2026-05-04 23:35 -23.61497 -47.65913 27522 ft 467 kts 42°
2026-05-04 23:35 -23.59167 -47.63471 27097 ft 463 kts 42°
2026-05-04 23:35 -23.56859 -47.61050 26677 ft 459 kts 42°
2026-05-04 23:36 -23.54568 -47.58645 26257 ft 455 kts 42°
2026-05-04 23:36 -23.52299 -47.56260 25856 ft 452 kts 42°
2026-05-04 23:36 -23.50044 -47.53891 25455 ft 448 kts 42°
2026-05-04 23:36 -23.47807 -47.51543 25069 ft 445 kts 42°
2026-05-04 23:37 -23.45581 -47.49213 24654 ft 441 kts 42°
2026-05-04 23:37 -23.43374 -47.46908 24286 ft 438 kts 42°
2026-05-04 23:37 -23.41183 -47.44619 23905 ft 435 kts 42°
2026-05-04 23:37 -23.39009 -47.42345 23489 ft 432 kts 43°
2026-05-04 23:38 -23.36853 -47.40087 23047 ft 429 kts 43°
2026-05-04 23:38 -23.34712 -47.37845 22630 ft 426 kts 43°
2026-05-04 23:38 -23.32588 -47.35621 22216 ft 423 kts 43°
2026-05-04 23:38 -23.30481 -47.33410 21811 ft 420 kts 44°
2026-05-04 23:39 -23.28739 -47.30887 21423 ft 417 kts 63°
2026-05-04 23:39 -23.27568 -47.28008 21035 ft 415 kts 68°
2026-05-04 23:39 -23.26482 -47.25105 20651 ft 412 kts 68°
2026-05-04 23:39 -23.25402 -47.22199 20270 ft 407 kts 68°
2026-05-04 23:40 -23.24349 -47.19361 19894 ft 402 kts 68°
2026-05-04 23:40 -23.23312 -47.16557 19517 ft 398 kts 68°
2026-05-04 23:40 -23.22289 -47.13781 19154 ft 394 kts 68°
2026-05-04 23:40 -23.21275 -47.11026 18795 ft 390 kts 68°
2026-05-04 23:41 -23.20274 -47.08303 18430 ft 387 kts 68°
2026-05-04 23:41 -23.19280 -47.05600 18025 ft 383 kts 68°
2026-05-04 23:41 -23.18295 -47.02929 17598 ft 377 kts 68°
2026-05-04 23:41 -23.17331 -47.00323 17188 ft 368 kts 68°
2026-05-04 23:42 -23.16380 -46.97764 16791 ft 361 kts 68°
2026-05-04 23:42 -23.15448 -46.95265 16393 ft 354 kts 68°
2026-05-04 23:42 -23.14547 -46.92795 15994 ft 348 kts 73°
2026-05-04 23:42 -23.14143 -46.90242 15627 ft 341 kts 86°
2026-05-04 23:43 -23.13981 -46.87695 15248 ft 336 kts 88°
2026-05-04 23:43 -23.13840 -46.85184 14896 ft 330 kts 88°
2026-05-04 23:43 -23.13700 -46.82713 14551 ft 326 kts 88°
2026-05-04 23:43 -23.13560 -46.80277 14207 ft 321 kts 88°
2026-05-04 23:44 -23.13419 -46.77873 13851 ft 317 kts 88°
2026-05-04 23:44 -23.13279 -46.75498 13463 ft 313 kts 88°
2026-05-04 23:44 -23.13146 -46.73154 13084 ft 309 kts 88°
2026-05-04 23:44 -23.13282 -46.70861 12728 ft 301 kts 106°
2026-05-04 23:45 -23.14076 -46.68796 12383 ft 294 kts 120°
2026-05-04 23:45 -23.15027 -46.66853 12043 ft 290 kts 120°
2026-05-04 23:45 -23.15972 -46.64921 11708 ft 289 kts 120°
2026-05-04 23:45 -23.16913 -46.62995 11396 ft 289 kts 119°
2026-05-04 23:46 -23.17854 -46.61073 11118 ft 287 kts 119°
2026-05-04 23:46 -23.18787 -46.59163 10839 ft 286 kts 119°
2026-05-04 23:46 -23.19716 -46.57265 10559 ft 284 kts 119°
2026-05-04 23:46 -23.20640 -46.55376 10288 ft 282 kts 119°
2026-05-04 23:47 -23.21597 -46.53525 10038 ft 280 kts 121°
2026-05-04 23:47 -23.22607 -46.51720 9785 ft 279 kts 123°
2026-05-04 23:47 -23.23650 -46.49913 9531 ft 278 kts 123°
2026-05-04 23:47 -23.24677 -46.48141 9279 ft 277 kts 123°
2026-05-04 23:48 -23.25699 -46.46370 9029 ft 276 kts 123°
2026-05-04 23:48 -23.26554 -46.44512 8789 ft 275 kts 108°
2026-05-04 23:48 -23.26907 -46.42480 8534 ft 274 kts 91°
2026-05-04 23:48 -23.26930 -46.40409 8284 ft 273 kts 90°
2026-05-04 23:49 -23.26951 -46.38356 8067 ft 269 kts 90°
2026-05-04 23:49 -23.26976 -46.36341 7837 ft 263 kts 90°
2026-05-04 23:49 -23.27002 -46.34372 7592 ft 258 kts 90°
2026-05-04 23:49 -23.27026 -46.32437 7353 ft 253 kts 91°
2026-05-04 23:50 -23.27257 -46.30560 7119 ft 249 kts 106°
2026-05-04 23:50 -23.27904 -46.28838 6879 ft 244 kts 118°
2026-05-04 23:50 -23.28691 -46.27213 6635 ft 242 kts 118°
2026-05-04 23:50 -23.29487 -46.25615 6381 ft 240 kts 125°
2026-05-04 23:51 -23.30640 -46.24340 6165 ft 236 kts 147°
2026-05-04 23:51 -23.32108 -46.23613 5942 ft 231 kts 167°
2026-05-04 23:51 -23.33657 -46.23195 5747 ft 227 kts 168°
2026-05-04 23:51 -23.35198 -46.23009 5558 ft 221 kts 191°
2026-05-04 23:52 -23.36570 -46.23646 5387 ft 213 kts 221°
2026-05-04 23:52 -23.37409 -46.24906 5221 ft 205 kts 252°
2026-05-04 23:52 -23.37831 -46.26359 5104 ft 199 kts 255°
2026-05-04 23:52 -23.38219 -46.27799 4956 ft 198 kts 255°
2026-05-04 23:53 -23.38606 -46.29229 4816 ft 197 kts 255°
2026-05-04 23:53 -23.38994 -46.30660 4656 ft 197 kts 255°
2026-05-04 23:53 -23.39381 -46.32086 4535 ft 197 kts 255°
2026-05-04 23:53 -23.39770 -46.33519 4415 ft 197 kts 255°
2026-05-04 23:54 -23.40155 -46.34938 4290 ft 192 kts 255°
2026-05-04 23:54 -23.40529 -46.36319 4179 ft 189 kts 254°
2026-05-04 23:54 -23.40895 -46.37667 3981 ft 181 kts 255°
2026-05-04 23:54 -23.41240 -46.38942 3796 ft 170 kts 254°
2026-05-04 23:55 -23.41568 -46.40153 3586 ft 162 kts 254°
2026-05-04 23:55 -23.41879 -46.41300 3387 ft 155 kts 253°
2026-05-04 23:55 -23.42473 -46.43499 2953 ft 146 kts 253°
2026-05-04 23:56 -23.42760 -46.44549 2751 ft 145 kts 253°
2026-05-04 23:56 -23.43041 -46.45594 2534 ft 143 kts 253°
2026-05-04 23:56 -23.43312 -46.46596 2467 ft 127 kts 253°
2026-05-04 23:56 -23.43515 -46.47342 2461 ft 78 kts 254°
2026-05-04 23:57 -23.43622 -46.47741 2463 ft 41 kts 253°
2026-05-04 23:57 -23.43698 -46.48025 2457 ft 34 kts 254°
2026-05-04 23:57 -23.43729 -46.48174 2456 ft 13 kts 277°